This is the latest recevied weather packets stored in our database for station/object SR5NLK-1. If no packets are shown the sender has not sent any weather packets the latest 10 day(s).
| Time | Temp. | Humidity | Pressure | Rain* | Wind** | Luminosity | Snow |
|---|---|---|---|---|---|---|---|
| 1777455315 | 6.11° C | 51% | 999.5 hPa | 0 mm | - | - | - |
| 1777455015 | 6.11° C | 52% | 986.8 hPa | 0 mm | - | - | - |
| 1777454714 | 6.11° C | 52% | 990.5 hPa | 0 mm | - | - | - |
| 1777454653 | 6.11° C | 52% | 994.4 hPa | 0 mm | - | - | - |
| 1777454415 | 6.11° C | 52% | 990.2 hPa | 0 mm | - | - | - |
| 1777454115 | 6.11° C | 52% | 990 hPa | 0 mm | - | - | - |
| 1777453815 | 6.11° C | 51% | 967.7 hPa | 0 mm | - | - | - |
| 1777453515 | 6.11° C | 51% | 951.2 hPa | 0 mm | - | - | - |
| 1777453215 | 6.67° C | 51% | 970.9 hPa | 0 mm | - | - | - |
| 1777452915 | 6.67° C | 51% | 977.2 hPa | 0 mm | - | - | - |
| 1777452674 | 6.67° C | 52% | 974 hPa | 0 mm | - | - | - |
| 1777452615 | 6.67° C | 52% | 986.8 hPa | 0 mm | - | - | - |
| 1777452315 | 6.67° C | 52% | 967.7 hPa | 0 mm | - | - | - |
| 1777452014 | 6.67° C | 51% | 970.9 hPa | 0 mm | - | - | - |
| 1777451715 | 6.67° C | 49% | 983.6 hPa | 0 mm | - | - | - |
| 1777451415 | 7.22° C | 47% | 999.5 hPa | 0 mm | - | - | - |
| 1777451115 | 8.33° C | 45% | 1021.6 hPa | 0 mm | - | - | - |
| 1777450815 | 8.33° C | 48% | 1037.4 hPa | 0 mm | - | - | - |
| 1777450694 | 7.78° C | 49% | 1031.2 hPa | 0 mm | - | - | - |
| 1777450515 | 7.22° C | 49% | 1037.5 hPa | 0 mm | - | - | - |
| 1777450215 | 7.22° C | 48% | 1040.7 hPa | 0 mm | - | - | - |
| 1777449915 | 7.78° C | 47% | 1065.8 hPa | 0 mm | - | - | - |
| 1777449615 | 7.78° C | 46% | 1053.2 hPa | 0 mm | - | - | - |
| 1777449315 | 8.33° C | 47% | 1031.1 hPa | 0 mm | - | - | - |
| 1777449022 | 8.33° C | - | - | 10.16 mm | - | - | - |
* Rain latest hour (hover to see other rain measurements)
** Current wind speed in m/s (hover to see current wind gust speed)